Weather History for LAAYOUNE/HASSAN, Mauritius

Change the Weather History Date:

Sunday, February 9, 2014

  Actual Average Record
Temperature  
Mean Temperature 60 °F -  
Max Temperature 68 °F - - ()
Min Temperature 51 °F - - ()
Degree Days  
Heating Degree Days 6    
Growing Degree Days 10 (Base 50)    
Moisture  
Dew Point 50 °F    
Average Humidity 70    
Maximum Humidity 94    
Minimum Humidity 49    
Precipitation  
Precipitation 0.00 in - - ()
Sea Level Pressure  
Sea Level Pressure 30.20 in    
Wind  
Wind Speed 8 mph ()    
Max Wind Speed 17 mph    
Max Gust Speed -    
Visibility 6.1 miles    
Events      
T = Trace of Precipitation, MM = Missing Value Source: Averaged Metar Reports

Daily Weather History Graph

Daily Weather History Graph

Search for Another Location

Airport:

Trip Planner

Search our weather history database for the weather conditions in past years. The results will help you decide how hot, cold, wet, or windy it might be!

Date:

Astronomy

Feb. 09, 2014 Rise Set
Actual Time 7:34 AM WET 6:40 PM WET
Civil Twilight 7:10 AM WET 7:04 PM WET
Nautical Twilight 6:42 AM WET 7:32 PM WET
Astronomical Twilight 6:15 AM WET 7:59 PM WET
Moon 2:19 PM WET (2/9) 3:19 AM WET (2/9)
Length of Visible Light 11h 54m
Length of Day
11h 06m
Waxing Gibbous, 75% of the Moon is Illuminated
Feb 9
Waxing Gibbous
Feb 14
Full
Feb 22
Last Quarter
Mar 1
New
Mar 8
First Quarter

Hourly Weather History & Observations

Time (WET) Temp. Dew Point Humidity Pressure Visibility Wind Dir Wind Speed Gust Speed Precip Events Conditions
12:00 AM 55.4 °F 50.0 °F 82% 30.24 in 6.2 mi NNE 8.1 mph - N/A   Unknown
12:30 AM 53.6 °F 50.0 °F 88% 30.24 in 6.2 mi NNE 8.1 mph - N/A   Unknown
1:00 AM 53.6 °F 50.0 °F 88% 30.24 in 6.2 mi NNE 6.9 mph - N/A   Unknown
1:30 AM 53.6 °F 50.0 °F 88% 30.21 in 6.2 mi NNE 6.9 mph - N/A   Unknown
2:00 AM 53.6 °F 50.0 °F 88% 30.21 in - NE 4.6 mph - N/A   Clear
3:00 AM 53.6 °F 50.0 °F 88% 30.18 in 6.2 mi NNE 5.8 mph - N/A   Unknown
3:01 AM 53.6 °F 50.0 °F 88% 30.21 in - NNE 3.5 mph - N/A   Clear
4:00 AM 51.8 °F 50.0 °F 94% 30.18 in 6.2 mi NNE 5.8 mph - N/A   Unknown
4:30 AM 51.8 °F 50.0 °F 94% 30.18 in 6.2 mi NNE 8.1 mph - N/A   Unknown
5:00 AM 51.8 °F 50.0 °F 94% 30.18 in 6.2 mi NNE 8.1 mph - N/A   Unknown
5:30 AM 51.8 °F 50.0 °F 94% 30.18 in 6.2 mi NNE 8.1 mph - N/A   Unknown
6:00 AM 53.6 °F 50.0 °F 88% 30.18 in 6.2 mi NNE 9.2 mph - N/A   Mostly Cloudy
6:30 AM 53.6 °F 50.0 °F 88% 30.18 in 6.2 mi NNE 9.2 mph - N/A   Scattered Clouds
7:00 AM 53.6 °F 50.0 °F 88% 30.18 in 6.2 mi NNE 9.2 mph - N/A   Unknown
7:30 AM 53.6 °F 50.0 °F 88% 30.18 in 6.2 mi NNE 8.1 mph - N/A   Unknown
8:00 AM 53.6 °F 50.0 °F 88% 30.18 in 6.2 mi NNE 9.2 mph - N/A   Unknown
8:30 AM 55.4 °F 50.0 °F 82% 30.21 in 6.2 mi NNE 6.9 mph - N/A   Unknown
9:00 AM 59.0 °F 51.8 °F 77% 30.21 in 6.2 mi NE 2.3 mph - N/A   Mostly Cloudy
9:30 AM 62.6 °F 50.0 °F 63% 30.21 in 6.2 mi NE 8.1 mph - N/A   Mostly Cloudy
10:00 AM 62.6 °F 48.2 °F 59% 30.51 in 6.2 mi NE 9.2 mph - N/A   Overcast
11:00 AM 64.4 °F 48.2 °F 56% 30.24 in 6.2 mi North 9.2 mph - N/A   Overcast
11:30 AM 66.2 °F 48.2 °F 52% 30.21 in 6.2 mi North 10.4 mph - N/A   Overcast
12:00 PM 66.2 °F 48.2 °F 52% 30.21 in 6.2 mi North 10.4 mph - N/A   Scattered Clouds
12:30 PM 66.2 °F 48.2 °F 52% 30.21 in 6.2 mi NNW 12.7 mph - N/A   Scattered Clouds
1:00 PM 68.0 °F 50.0 °F 52% 30.21 in 6.2 mi NNE 13.8 mph - N/A   Scattered Clouds
1:30 PM 68.0 °F 48.2 °F 49% 30.18 in 6.2 mi NNW 13.8 mph - N/A   Partly Cloudy
2:00 PM 68.0 °F 48.2 °F 49% 30.18 in 6.2 mi East 13.8 mph - N/A   Scattered Clouds
2:30 PM 68.0 °F 48.2 °F 49% 30.18 in 6.2 mi NNW 16.1 mph - N/A   Unknown
3:00 PM 68.0 °F 48.2 °F 49% 30.15 in 6.2 mi NW 16.1 mph - N/A   Unknown
4:00 PM 68.0 °F 48.2 °F 49% 30.15 in 6.2 mi NNW 17.3 mph - N/A   Partly Cloudy
4:30 PM 66.2 °F 50.0 °F 56% 30.15 in 6.2 mi NNW 16.1 mph - N/A   Mostly Cloudy
5:00 PM 66.2 °F 50.0 °F 56% 30.15 in 6.2 mi NNW 12.7 mph - N/A   Mostly Cloudy
5:30 PM 66.2 °F 50.0 °F 56% 30.15 in 6.2 mi NNW 12.7 mph - N/A   Partly Cloudy
6:00 PM 64.4 °F 50.0 °F 59% 30.18 in 6.2 mi NNW 11.5 mph - N/A   Scattered Clouds
6:30 PM 64.4 °F 50.0 °F 59% 30.18 in 6.2 mi North 11.5 mph - N/A   Unknown
7:00 PM 64.4 °F 50.0 °F 59% 30.18 in 6.2 mi North 9.2 mph - N/A   Scattered Clouds
7:30 PM 62.6 °F 50.0 °F 63% 30.18 in 6.2 mi North 8.1 mph - N/A   Scattered Clouds
8:00 PM 60.8 °F 50.0 °F 68% 30.21 in 6.2 mi North 5.8 mph - N/A   Mostly Cloudy
8:30 PM 60.8 °F 50.0 °F 68% 30.21 in 5.6 mi North 3.5 mph - N/A   Mostly Cloudy
8:42 PM 60.8 °F 50.0 °F 68% 30.21 in - NNW 4.6 mph - N/A   Haze
9:00 PM 60.8 °F 50.0 °F 68% 30.21 in 6.2 mi NW 5.8 mph - N/A   Overcast
9:30 PM 62.6 °F 51.8 °F 68% 30.24 in 6.2 mi North 5.8 mph - N/A   Overcast
10:00 PM 62.6 °F 50.0 °F 63% 30.24 in 6.2 mi North 4.6 mph - N/A   Overcast
10:30 PM 62.6 °F 50.0 °F 63% 30.24 in 4.3 mi NNW 6.9 mph - N/A   Overcast
10:31 PM 62.6 °F 50.0 °F 63% 30.24 in - NNW 6.9 mph - N/A   Haze
11:00 PM 62.6 °F 51.8 °F 68% 30.24 in 6.2 mi NNW 5.8 mph - N/A   Overcast